User: anonymous   Login
Location: Charbonni�res
(45.9952°N, 2.9982°E)
Time: 21:13:44
(UTC+00:00)
Language:

H-2A R/B - Orbit

View from above orbital plane
View from above orbital plane
View from above satellite
View from above satellite

Ground track
Ground track

The orbit data is extracted from the following two-line orbital elements,

1 36105U 09066B   21044.17338895 0.00001000  00000-0  52377-4 0    03
2 36105  97.2869  41.1565 0030197  16.2159 343.7839 15.15449457    06
Epoch (UTC): 13 February 2021 04:09:40
Eccentricity: 0.0030197
inclination: 97.2869°
perigee height: 499 km
apogee height: 540 km
right ascension of ascending node: 41.1565°
argument of perigee: 16.2159°
revolutions per day: 15.15449457
mean anomaly at epoch: 343.7839°
orbit number at epoch: 0

The dashed part of the orbit path shows where the satellite is in the earth's shadow,  

DLR